Time,TemperatureF,DewpointF,PressureIn,WindDirection,WindDirectionDegrees,WindSpeedMPH,WindSpeedGustMPH,Humidity,HourlyPrecipIn,Conditions,Clouds,dailyrainin,SoftwareType,DateUTC
2013-03-24 00:00:00,33.1,25.4,29.98,NE,36,9.0,10.0,73,0.00,,,0.00,Wunderground v.1.15,2013-03-24 05:00:00,
2013-03-24 00:10:00,32.9,25.2,29.98,NE,39,10.0,10.0,73,0.00,,,0.00,Wunderground v.1.15,2013-03-24 05:10:00,
2013-03-24 00:20:00,32.7,25.0,29.98,NE,37,8.0,10.0,73,0.00,,,0.00,Wunderground v.1.15,2013-03-24 05:20:00,
2013-03-24 00:30:00,32.6,24.6,29.98,NE,38,8.0,9.0,72,0.00,,,0.00,Wunderground v.1.15,2013-03-24 05:30:00,
2013-03-24 00:40:00,32.5,24.5,29.97,NE,51,9.0,11.0,72,0.00,,,0.00,Wunderground v.1.15,2013-03-24 05:40:00,
2013-03-24 00:45:00,32.4,24.4,29.97,NE,36,9.0,11.0,72,0.00,,,0.00,Wunderground v.1.15,2013-03-24 05:45:00,
2013-03-24 00:55:00,32.3,24.3,29.97,NNE,25,9.0,10.0,72,0.00,,,0.00,Wunderground v.1.15,2013-03-24 05:55:00,
2013-03-24 01:00:00,32.3,24.6,29.97,NE,34,8.0,9.0,73,0.00,,,0.00,Wunderground v.1.15,2013-03-24 06:00:00,
2013-03-24 01:10:00,32.4,24.7,29.96,NNE,30,9.0,9.0,73,0.00,,,0.00,Wunderground v.1.15,2013-03-24 06:10:00,
2013-03-24 01:20:00,32.4,24.4,29.97,NE,36,9.0,9.0,72,0.00,,,0.00,Wunderground v.1.15,2013-03-24 06:20:00,
2013-03-24 01:25:00,32.4,24.4,29.96,NE,42,9.0,10.0,72,0.00,,,0.00,Wunderground v.1.15,2013-03-24 06:25:00,
2013-03-24 01:35:00,32.4,24.4,29.97,NE,44,9.0,10.0,72,0.00,,,0.00,Wunderground v.1.15,2013-03-24 06:35:00,
2013-03-24 01:40:00,32.4,24.4,29.98,NE,49,9.0,10.0,72,0.00,,,0.00,Wunderground v.1.15,2013-03-24 06:40:00,
2013-03-24 01:50:00,32.5,24.5,29.98,NE,46,9.0,9.0,72,0.00,,,0.00,Wunderground v.1.15,2013-03-24 06:50:00,
2013-03-24 02:00:00,32.5,24.5,29.98,NE,45,8.0,9.0,72,0.00,,,0.00,Wunderground v.1.15,2013-03-24 07:00:00,
2013-03-24 02:05:00,32.4,24.4,29.98,NE,40,8.0,9.0,72,0.00,,,0.00,Wunderground v.1.15,2013-03-24 07:05:00,
2013-03-24 02:10:00,32.5,24.8,29.98,NE,36,8.0,8.0,73,0.00,,,0.00,Wunderground v.1.15,2013-03-24 07:10:00,
2013-03-24 02:20:00,32.5,24.8,29.98,NE,36,8.0,9.0,73,0.00,,,0.00,Wunderground v.1.15,2013-03-24 07:20:00,
2013-03-24 02:30:00,32.4,25.0,29.98,NE,37,8.0,8.0,74,0.00,,,0.00,Wunderground v.1.15,2013-03-24 07:30:00,
2013-03-24 02:35:00,32.4,24.7,29.98,NNE,30,7.0,8.0,73,0.00,,,0.00,Wunderground v.1.15,2013-03-24 07:35:00,
2013-03-24 02:40:00,32.4,24.7,29.98,NE,41,8.0,9.0,73,0.00,,,0.00,Wunderground v.1.15,2013-03-24 07:40:00,
2013-03-24 02:50:00,32.4,25.0,29.98,NE,41,8.0,8.0,74,0.00,,,0.00,Wunderground v.1.15,2013-03-24 07:50:00,
2013-03-24 03:00:00,32.3,24.9,29.98,NNE,31,8.0,9.0,74,0.00,,,0.00,Wunderground v.1.15,2013-03-24 08:00:00,
2013-03-24 03:10:00,32.2,24.8,29.97,NNE,29,8.0,10.0,74,0.00,,,0.00,Wunderground v.1.15,2013-03-24 08:10:00,
2013-03-24 03:15:00,32.1,24.7,29.97,NNE,32,8.0,10.0,74,0.00,,,0.00,Wunderground v.1.15,2013-03-24 08:15:00,
2013-03-24 03:20:00,32.1,24.7,29.96,NE,45,7.0,9.0,74,0.00,,,0.00,Wunderground v.1.15,2013-03-24 08:20:00,
2013-03-24 03:30:00,32.0,24.6,29.96,NE,47,8.0,10.0,74,0.00,,,0.00,Wunderground v.1.15,2013-03-24 08:30:00,
2013-03-24 03:35:00,31.9,24.6,29.96,NE,51,9.0,13.0,74,0.00,,,0.00,Wunderground v.1.15,2013-03-24 08:35:00,
2013-03-24 03:45:00,31.9,24.6,29.96,NE,50,9.0,10.0,74,0.00,,,0.00,Wunderground v.1.15,2013-03-24 08:45:00,
2013-03-24 03:55:00,31.8,24.8,29.95,NE,36,8.0,9.0,75,0.00,,,0.00,Wunderground v.1.15,2013-03-24 08:55:00,
2013-03-24 04:00:00,31.7,24.7,29.96,NE,39,8.0,9.0,75,0.00,,,0.00,Wunderground v.1.15,2013-03-24 09:00:00,
2013-03-24 04:05:00,31.7,24.7,29.96,NNE,30,7.0,9.0,75,0.00,,,0.00,Wunderground v.1.15,2013-03-24 09:05:00,
2013-03-24 04:15:00,31.6,24.6,29.95,NE,38,7.0,9.0,75,0.00,,,0.00,Wunderground v.1.15,2013-03-24 09:15:00,
2013-03-24 04:25:00,31.5,24.5,29.94,NNE,25,8.0,8.0,75,0.00,,,0.00,Wunderground v.1.15,2013-03-24 09:25:00,
2013-03-24 04:30:00,31.5,24.8,29.93,NE,38,8.0,8.0,76,0.00,,,0.00,Wunderground v.1.15,2013-03-24 09:30:00,
2013-03-24 04:40:00,31.4,24.7,29.93,NE,36,8.0,8.0,76,0.00,,,0.00,Wunderground v.1.15,2013-03-24 09:40:00,
2013-03-24 04:45:00,31.4,25.0,29.93,NE,38,8.0,8.0,77,0.00,,,0.00,Wunderground v.1.15,2013-03-24 09:45:00,
2013-03-24 04:55:00,31.4,25.0,29.92,NE,54,8.0,12.0,77,0.00,,,0.00,Wunderground v.1.15,2013-03-24 09:55:00,
2013-03-24 05:05:00,31.2,24.8,29.92,ENE,61,9.0,9.0,77,0.00,,,0.00,Wunderground v.1.15,2013-03-24 10:05:00,
2013-03-24 05:10:00,31.2,24.8,29.91,NE,50,9.0,10.0,77,0.00,,,0.00,Wunderground v.1.15,2013-03-24 10:10:00,
2013-03-24 05:20:00,31.1,25.3,29.90,NE,53,11.0,15.0,79,0.00,,,0.00,Wunderground v.1.15,2013-03-24 10:20:00,
2013-03-24 05:25:00,30.8,25.4,29.90,ENE,60,12.0,15.0,80,0.00,,,0.00,Wunderground v.1.15,2013-03-24 10:25:00,
2013-03-24 05:35:00,30.3,25.8,29.90,NE,55,11.0,11.0,83,0.00,,,0.00,Wunderground v.1.15,2013-03-24 10:35:00,
2013-03-24 05:45:00,29.9,25.9,29.89,NE,47,9.0,12.0,85,0.00,,,0.00,Wunderground v.1.15,2013-03-24 10:45:00,
2013-03-24 05:55:00,29.7,26.0,29.89,NE,50,10.0,10.0,86,0.00,,,0.00,Wunderground v.1.15,2013-03-24 10:55:00,
2013-03-24 06:00:00,29.6,25.9,29.88,NE,46,10.0,10.0,86,0.00,,,0.00,Wunderground v.1.15,2013-03-24 11:00:00,
2013-03-24 06:05:00,29.6,25.9,29.87,NE,45,10.0,10.0,86,0.00,,,0.00,Wunderground v.1.15,2013-03-24 11:05:00,
2013-03-24 06:15:00,29.6,26.2,29.88,ENE,63,9.0,10.0,87,0.00,,,0.00,Wunderground v.1.15,2013-03-24 11:15:00,
2013-03-24 06:25:00,29.6,26.2,29.87,East,86,9.0,13.0,87,0.00,,,0.00,Wunderground v.1.15,2013-03-24 11:25:00,
2013-03-24 06:30:00,29.6,26.2,29.86,NE,51,10.0,10.0,87,0.00,,,0.00,Wunderground v.1.15,2013-03-24 11:30:00,
2013-03-24 06:40:00,29.7,26.3,29.87,ENE,64,9.0,9.0,87,0.00,,,0.00,Wunderground v.1.15,2013-03-24 11:40:00,
2013-03-24 06:45:00,29.7,26.3,29.87,ENE,65,9.0,11.0,87,0.00,,,0.00,Wunderground v.1.15,2013-03-24 11:45:00,
2013-03-24 06:55:00,29.7,26.3,29.85,ENE,69,9.0,14.0,87,0.00,,,0.00,Wunderground v.1.15,2013-03-24 11:55:00,
2013-03-24 07:05:00,29.8,26.4,29.85,ENE,73,9.0,11.0,87,0.00,,,0.00,Wunderground v.1.15,2013-03-24 12:05:00,
2013-03-24 07:10:00,29.9,26.5,29.84,ENE,72,9.0,10.0,87,0.00,,,0.00,Wunderground v.1.15,2013-03-24 12:10:00,
2013-03-24 07:20:00,30.0,26.6,29.84,ENE,64,9.0,9.0,87,0.00,,,0.00,Wunderground v.1.15,2013-03-24 12:20:00,
2013-03-24 07:25:00,30.1,26.7,29.84,NE,50,9.0,11.0,87,0.00,,,0.00,Wunderground v.1.15,2013-03-24 12:25:00,
2013-03-24 07:35:00,30.2,26.8,29.84,NE,55,10.0,10.0,87,0.00,,,0.00,Wunderground v.1.15,2013-03-24 12:35:00,
2013-03-24 07:45:00,30.3,26.9,29.84,ENE,57,9.0,9.0,87,0.00,,,0.00,Wunderground v.1.15,2013-03-24 12:45:00,
2013-03-24 07:50:00,30.3,26.9,29.84,ENE,65,9.0,9.0,87,0.00,,,0.00,Wunderground v.1.15,2013-03-24 12:50:00,
2013-03-24 08:00:00,30.4,27.0,29.84,ENE,59,9.0,9.0,87,0.00,,,0.00,Wunderground v.1.15,2013-03-24 13:00:00,
2013-03-24 08:05:00,30.4,27.0,29.83,NE,55,9.0,9.0,87,0.00,,,0.00,Wunderground v.1.15,2013-03-24 13:05:00,
2013-03-24 08:15:00,30.5,26.8,29.82,NE,53,10.0,10.0,86,0.00,,,0.00,Wunderground v.1.15,2013-03-24 13:15:00,
2013-03-24 08:20:00,30.5,27.1,29.81,ENE,64,10.0,11.0,87,0.00,,,0.00,Wunderground v.1.15,2013-03-24 13:20:00,
2013-03-24 08:30:00,30.8,27.4,29.81,NE,47,9.0,9.0,87,0.00,,,0.00,Wunderground v.1.15,2013-03-24 13:30:00,
2013-03-24 08:40:00,31.1,27.4,29.81,ENE,67,9.0,13.0,86,0.00,,,0.00,Wunderground v.1.15,2013-03-24 13:40:00,
2013-03-24 08:45:00,31.1,27.4,29.80,ENE,65,9.0,13.0,86,0.00,,,0.00,Wunderground v.1.15,2013-03-24 13:45:00,
2013-03-24 08:55:00,31.2,27.5,29.79,NE,49,9.0,10.0,86,0.00,,,0.00,Wunderground v.1.15,2013-03-24 13:55:00,
2013-03-24 09:05:00,31.3,27.6,29.78,ENE,61,10.0,11.0,86,0.00,,,0.00,Wunderground v.1.15,2013-03-24 14:05:00,
2013-03-24 09:10:00,31.3,27.6,29.78,ENE,74,10.0,10.0,86,0.00,,,0.00,Wunderground v.1.15,2013-03-24 14:10:00,
2013-03-24 09:20:00,31.5,27.8,29.77,ENE,61,10.0,10.0,86,0.00,,,0.00,Wunderground v.1.15,2013-03-24 14:20:00,
2013-03-24 09:25:00,31.6,27.9,29.77,ENE,59,9.0,10.0,86,0.00,,,0.00,Wunderground v.1.15,2013-03-24 14:25:00,
2013-03-24 09:35:00,31.7,28.0,29.76,East,88,10.0,16.0,86,0.00,,,0.00,Wunderground v.1.15,2013-03-24 14:35:00,
2013-03-24 09:40:00,31.7,28.0,29.77,ENE,57,10.0,10.0,86,0.00,,,0.00,Wunderground v.1.15,2013-03-24 14:40:00,
2013-03-24 09:50:00,31.8,28.1,29.76,ENE,61,10.0,10.0,86,0.00,,,0.00,Wunderground v.1.15,2013-03-24 14:50:00,
2013-03-24 10:00:00,31.9,28.2,29.76,NE,51,10.0,10.0,86,0.00,,,0.01,Wunderground v.1.15,2013-03-24 15:00:00,
2013-03-24 10:05:00,31.9,28.2,29.76,ENE,67,9.0,10.0,86,0.00,,,0.01,Wunderground v.1.15,2013-03-24 15:05:00,
2013-03-24 10:15:00,32.0,28.3,29.74,ENE,71,10.0,11.0,86,0.00,,,0.01,Wunderground v.1.15,2013-03-24 15:15:00,
2013-03-24 10:20:00,32.0,28.3,29.74,NE,53,10.0,10.0,86,0.00,,,0.01,Wunderground v.1.15,2013-03-24 15:20:00,
2013-03-24 10:30:00,32.1,28.4,29.74,NE,51,11.0,11.0,86,0.00,,,0.01,Wunderground v.1.15,2013-03-24 15:30:00,
2013-03-24 10:35:00,32.1,28.4,29.73,ENE,59,10.0,11.0,86,0.00,,,0.01,Wunderground v.1.15,2013-03-24 15:35:00,
2013-03-24 10:45:00,32.2,28.5,29.73,East,89,11.0,11.0,86,0.00,,,0.01,Wunderground v.1.15,2013-03-24 15:45:00,
2013-03-24 10:50:00,32.3,28.9,29.73,NE,54,11.0,11.0,87,0.00,,,0.01,Wunderground v.1.15,2013-03-24 15:50:00,
2013-03-24 11:00:00,32.4,29.0,29.72,NE,44,11.0,13.0,87,0.00,,,0.01,Wunderground v.1.15,2013-03-24 16:00:00,
2013-03-24 11:10:00,32.5,29.1,29.71,ENE,57,11.0,11.0,87,0.00,,,0.01,Wunderground v.1.15,2013-03-24 16:10:00,
2013-03-24 11:15:00,32.6,29.2,29.70,ENE,64,11.0,11.0,87,0.00,,,0.01,Wunderground v.1.15,2013-03-24 16:15:00,
2013-03-24 11:25:00,32.9,29.2,29.68,NE,53,12.0,12.0,86,0.00,,,0.01,Wunderground v.1.15,2013-03-24 16:25:00,
2013-03-24 11:30:00,33.0,29.3,29.68,ENE,62,13.0,13.0,86,0.00,,,0.01,Wunderground v.1.15,2013-03-24 16:30:00,
2013-03-24 11:40:00,33.5,29.8,29.67,NE,55,12.0,12.0,86,0.00,,,0.01,Wunderground v.1.15,2013-03-24 16:40:00,
2013-03-24 11:50:00,33.6,29.9,29.67,ENE,78,13.0,13.0,86,0.00,,,0.01,Wunderground v.1.15,2013-03-24 16:50:00,
2013-03-24 11:55:00,33.7,30.0,29.66,NE,46,13.0,14.0,86,0.00,,,0.01,Wunderground v.1.15,2013-03-24 16:55:00,
2013-03-24 12:00:00,33.8,30.1,29.65,ENE,61,13.0,16.0,86,0.00,,,0.01,Wunderground v.1.15,2013-03-24 17:00:00,
2013-03-24 12:10:00,33.8,29.8,29.65,ENE,66,15.0,15.0,85,0.00,,,0.01,Wunderground v.1.15,2013-03-24 17:10:00,
2013-03-24 12:20:00,33.9,29.9,29.64,NE,53,15.0,20.0,85,0.00,,,0.01,Wunderground v.1.15,2013-03-24 17:20:00,
2013-03-24 12:30:00,34.0,29.7,29.64,ENE,67,15.0,15.0,84,0.00,,,0.01,Wunderground v.1.15,2013-03-24 17:30:00,
2013-03-24 12:35:00,33.9,29.3,29.64,ENE,64,15.0,15.0,83,0.00,,,0.01,Wunderground v.1.15,2013-03-24 17:35:00,
2013-03-24 12:40:00,33.9,29.3,29.62,NE,54,16.0,21.0,83,0.00,,,0.01,Wunderground v.1.15,2013-03-24 17:40:00,
2013-03-24 12:50:00,33.8,29.2,29.62,ENE,66,16.0,23.0,83,0.00,,,0.01,Wunderground v.1.15,2013-03-24 17:50:00,
2013-03-24 13:00:00,33.8,28.9,29.62,NE,46,16.0,21.0,82,0.00,,,0.01,Wunderground v.1.15,2013-03-24 18:00:00,
2013-03-24 13:10:00,33.8,28.6,29.63,NE,53,16.0,16.0,81,0.00,,,0.01,Wunderground v.1.15,2013-03-24 18:10:00,
2013-03-24 13:15:00,33.8,28.6,29.63,ENE,77,14.0,16.0,81,0.00,,,0.01,Wunderground v.1.15,2013-03-24 18:15:00,
2013-03-24 13:25:00,33.8,28.3,29.62,NE,46,15.0,19.0,80,0.00,,,0.01,Wunderground v.1.15,2013-03-24 18:25:00,
2013-03-24 13:30:00,33.9,28.4,29.61,NE,46,14.0,14.0,80,0.00,,,0.01,Wunderground v.1.15,2013-03-24 18:30:00,
2013-03-24 13:40:00,33.8,28.3,29.60,NE,34,15.0,15.0,80,0.00,,,0.01,Wunderground v.1.15,2013-03-24 18:40:00,
2013-03-24 13:45:00,33.8,28.0,29.60,NE,51,15.0,20.0,79,0.00,,,0.01,Wunderground v.1.15,2013-03-24 18:45:00,
2013-03-24 13:55:00,33.7,27.9,29.61,NE,49,14.0,15.0,79,0.00,,,0.01,Wunderground v.1.15,2013-03-24 18:55:00,
2013-03-24 14:05:00,33.6,27.8,29.64,NE,52,10.0,12.0,79,0.00,,,0.01,Wunderground v.1.15,2013-03-24 19:05:00,
2013-03-24 14:10:00,33.6,28.1,29.64,NE,54,9.0,10.0,80,0.00,,,0.01,Wunderground v.1.15,2013-03-24 19:10:00,
2013-03-24 14:20:00,33.4,28.2,29.63,NE,40,6.0,6.0,81,0.00,,,0.01,Wunderground v.1.15,2013-03-24 19:20:00,
2013-03-24 14:30:00,32.9,28.0,29.62,NE,34,8.0,8.0,82,0.00,,,0.01,Wunderground v.1.15,2013-03-24 19:30:00,
2013-03-24 14:35:00,32.6,28.0,29.61,NNE,32,9.0,9.0,83,0.00,,,0.01,Wunderground v.1.15,2013-03-24 19:35:00,
2013-03-24 14:45:00,32.2,28.2,29.59,NNE,33,11.0,11.0,85,0.00,,,0.01,Wunderground v.1.15,2013-03-24 19:45:00,
2013-03-24 14:50:00,32.0,28.0,29.60,NE,42,11.0,11.0,85,0.00,,,0.01,Wunderground v.1.15,2013-03-24 19:50:00,
2013-03-24 15:00:00,31.8,28.1,29.61,NE,46,9.0,9.0,86,0.00,,,0.01,Wunderground v.1.15,2013-03-24 20:00:00,
2013-03-24 15:10:00,31.5,28.1,29.62,NE,50,10.0,12.0,87,0.00,,,0.01,Wunderground v.1.15,2013-03-24 20:10:00,
2013-03-24 15:15:00,31.4,28.3,29.62,NE,38,10.0,12.0,88,0.00,,,0.01,Wunderground v.1.15,2013-03-24 20:15:00,
2013-03-24 15:20:00,31.3,28.2,29.62,NE,41,10.0,10.0,88,0.00,,,0.01,Wunderground v.1.15,2013-03-24 20:20:00,
2013-03-24 15:30:00,31.2,28.3,29.61,NNE,27,10.0,10.0,89,0.00,,,0.01,Wunderground v.1.15,2013-03-24 20:30:00,
2013-03-24 15:40:00,31.2,28.3,29.61,NE,34,10.0,13.0,89,0.00,,,0.01,Wunderground v.1.15,2013-03-24 20:40:00,
2013-03-24 15:45:00,31.1,28.2,29.60,NE,44,10.0,13.0,89,0.00,,,0.01,Wunderground v.1.15,2013-03-24 20:45:00,
2013-03-24 15:55:00,31.1,28.2,29.59,NNE,33,10.0,10.0,89,0.00,,,0.01,Wunderground v.1.15,2013-03-24 20:55:00,
2013-03-24 16:00:00,31.1,28.2,29.59,NNE,28,9.0,11.0,89,0.00,,,0.01,Wunderground v.1.15,2013-03-24 21:00:00,
2013-03-24 16:10:00,31.0,28.1,29.60,NNE,31,10.0,10.0,89,0.00,,,0.01,Wunderground v.1.15,2013-03-24 21:10:00,
2013-03-24 16:20:00,31.0,28.1,29.60,NE,40,9.0,9.0,89,0.00,,,0.01,Wunderground v.1.15,2013-03-24 21:20:00,
2013-03-24 16:25:00,31.0,28.1,29.60,NNE,29,9.0,12.0,89,0.00,,,0.01,Wunderground v.1.15,2013-03-24 21:25:00,
2013-03-24 16:35:00,31.0,28.1,29.61,NE,38,10.0,14.0,89,0.00,,,0.01,Wunderground v.1.15,2013-03-24 21:35:00,
2013-03-24 16:45:00,30.9,28.3,29.61,NNE,14,11.0,13.0,90,0.00,,,0.01,Wunderground v.1.15,2013-03-24 21:45:00,
2013-03-24 16:50:00,31.0,28.4,29.61,North,5,11.0,11.0,90,0.00,,,0.01,Wunderground v.1.15,2013-03-24 21:50:00,
2013-03-24 17:00:00,31.0,28.4,29.60,North,11,11.0,15.0,90,0.00,,,0.01,Wunderground v.1.15,2013-03-24 22:00:00,
2013-03-24 17:10:00,31.0,28.4,29.60,NNE,28,11.0,11.0,90,0.00,,,0.01,Wunderground v.1.15,2013-03-24 22:10:00,
2013-03-24 17:15:00,31.0,28.4,29.60,North,11,12.0,15.0,90,0.00,,,0.01,Wunderground v.1.15,2013-03-24 22:15:00,
2013-03-24 17:25:00,31.0,28.4,29.60,NNE,24,12.0,12.0,90,0.00,,,0.01,Wunderground v.1.15,2013-03-24 22:25:00,
2013-03-24 17:35:00,31.1,28.5,29.61,NE,40,10.0,14.0,90,0.00,,,0.01,Wunderground v.1.15,2013-03-24 22:35:00,
2013-03-24 17:40:00,31.1,28.5,29.61,NNE,32,12.0,12.0,90,0.00,,,0.01,Wunderground v.1.15,2013-03-24 22:40:00,
2013-03-24 17:50:00,31.1,28.5,29.61,NNE,17,9.0,13.0,90,0.00,,,0.01,Wunderground v.1.15,2013-03-24 22:50:00,
2013-03-24 18:00:00,30.9,28.3,29.61,NNE,24,13.0,13.0,90,0.00,,,0.01,Wunderground v.1.15,2013-03-24 23:00:00,
2013-03-24 18:05:00,30.9,28.3,29.62,NE,35,12.0,13.0,90,0.00,,,0.01,Wunderground v.1.15,2013-03-24 23:05:00,
2013-03-24 18:15:00,30.8,28.2,29.62,NE,38,12.0,17.0,90,0.00,,,0.01,Wunderground v.1.15,2013-03-24 23:15:00,
2013-03-24 18:20:00,30.7,27.8,29.62,NE,37,12.0,12.0,89,0.00,,,0.01,Wunderground v.1.15,2013-03-24 23:20:00,
2013-03-24 18:30:00,30.7,28.1,29.63,NE,37,10.0,13.0,90,0.00,,,0.01,Wunderground v.1.15,2013-03-24 23:30:00,
2013-03-24 18:40:00,30.5,27.9,29.63,NNE,33,11.0,12.0,90,0.00,,,0.01,Wunderground v.1.15,2013-03-24 23:40:00,
2013-03-24 18:45:00,30.5,27.9,29.64,NNE,30,11.0,12.0,90,0.00,,,0.01,Wunderground v.1.15,2013-03-24 23:45:00,
2013-03-24 18:55:00,30.4,27.8,29.64,NE,36,11.0,13.0,90,0.00,,,0.01,Wunderground v.1.15,2013-03-24 23:55:00,
2013-03-24 19:00:00,30.4,27.8,29.64,NE,43,12.0,12.0,90,0.00,,,0.01,Wunderground v.1.15,2013-03-25 00:00:00,
2013-03-24 19:10:00,30.4,27.8,29.64,NE,38,12.0,12.0,90,0.00,,,0.01,Wunderground v.1.15,2013-03-25 00:10:00,
2013-03-24 19:20:00,30.4,27.8,29.65,NNE,31,10.0,10.0,90,0.00,,,0.01,Wunderground v.1.15,2013-03-25 00:20:00,
2013-03-24 19:25:00,30.3,27.7,29.65,NNE,28,9.0,10.0,90,0.00,,,0.01,Wunderground v.1.15,2013-03-25 00:25:00,
2013-03-24 19:35:00,30.4,27.8,29.65,NNE,23,9.0,10.0,90,0.00,,,0.01,Wunderground v.1.15,2013-03-25 00:35:00,
2013-03-24 19:45:00,30.4,27.8,29.66,NE,37,10.0,10.0,90,0.00,,,0.01,Wunderground v.1.15,2013-03-25 00:45:00,
2013-03-24 19:55:00,30.4,27.8,29.66,NNE,28,8.0,9.0,90,0.00,,,0.01,Wunderground v.1.15,2013-03-25 00:55:00,
2013-03-24 20:00:00,30.4,27.8,29.66,NE,34,7.0,7.0,90,0.00,,,0.01,Wunderground v.1.15,2013-03-25 01:00:00,
2013-03-24 20:10:00,30.4,27.8,29.67,NNE,15,6.0,6.0,90,0.00,,,0.01,Wunderground v.1.15,2013-03-25 01:10:00,
2013-03-24 20:20:00,30.5,27.9,29.67,NNE,13,8.0,8.0,90,0.00,,,0.01,Wunderground v.1.15,2013-03-25 01:20:00,
2013-03-24 20:30:00,30.5,27.9,29.67,NNE,15,8.0,8.0,90,0.00,,,0.01,Wunderground v.1.15,2013-03-25 01:30:00,
2013-03-24 20:35:00,30.6,28.0,29.67,NE,44,10.0,10.0,90,0.00,,,0.01,Wunderground v.1.15,2013-03-25 01:35:00,
2013-03-24 20:45:00,30.7,28.1,29.67,NNE,25,9.0,12.0,90,0.00,,,0.01,Wunderground v.1.15,2013-03-25 01:45:00,
2013-03-24 20:50:00,30.7,28.1,29.67,North,5,8.0,8.0,90,0.00,,,0.01,Wunderground v.1.15,2013-03-25 01:50:00,
2013-03-24 21:00:00,30.7,28.1,29.67,NNW,343,8.0,8.0,90,0.00,,,0.01,Wunderground v.1.15,2013-03-25 02:00:00,
2013-03-24 21:15:00,30.7,28.1,29.68,NNW,340,7.0,7.0,90,0.00,,,0.01,Wunderground v.1.15,2013-03-25 02:15:00,
2013-03-24 21:25:00,30.7,28.1,29.68,North,360,6.0,6.0,90,0.00,,,0.01,Wunderground v.1.15,2013-03-25 02:25:00,
2013-03-24 21:30:00,30.7,28.1,29.68,NNW,343,5.0,6.0,90,0.00,,,0.01,Wunderground v.1.15,2013-03-25 02:30:00,
2013-03-24 21:40:00,30.8,28.2,29.68,NW,325,4.0,4.0,90,0.00,,,0.01,Wunderground v.1.15,2013-03-25 02:40:00,
2013-03-24 21:50:00,30.8,28.2,29.68,NNW,343,4.0,5.0,90,0.00,,,0.01,Wunderground v.1.15,2013-03-25 02:50:00,
2013-03-24 22:00:00,31.0,28.4,29.68,NNW,328,6.0,6.0,90,0.00,,,0.01,Wunderground v.1.15,2013-03-25 03:00:00,
2013-03-24 22:05:00,31.1,28.5,29.68,NNW,336,5.0,6.0,90,0.00,,,0.01,Wunderground v.1.15,2013-03-25 03:05:00,
2013-03-24 22:15:00,31.2,28.6,29.69,NNW,343,6.0,7.0,90,0.00,,,0.01,Wunderground v.1.15,2013-03-25 03:15:00,
2013-03-24 22:25:00,31.2,28.6,29.68,North,9,7.0,10.0,90,0.00,,,0.01,Wunderground v.1.15,2013-03-25 03:25:00,
2013-03-24 22:35:00,31.3,28.7,29.69,NNW,343,7.0,8.0,90,0.00,,,0.01,Wunderground v.1.15,2013-03-25 03:35:00,
2013-03-24 22:40:00,31.3,28.7,29.69,North,5,6.0,6.0,90,0.00,,,0.01,Wunderground v.1.15,2013-03-25 03:40:00,
2013-03-24 22:50:00,31.3,28.7,29.69,North,360,5.0,5.0,90,0.00,,,0.01,Wunderground v.1.15,2013-03-25 03:50:00,
2013-03-24 22:55:00,31.3,28.7,29.68,NNW,327,6.0,8.0,90,0.00,,,0.01,Wunderground v.1.15,2013-03-25 03:55:00,
2013-03-24 23:00:00,31.3,28.7,29.68,NW,312,7.0,7.0,90,0.00,,,0.01,Wunderground v.1.15,2013-03-25 04:00:00,
2013-03-24 23:05:00,31.3,28.7,29.69,NW,317,6.0,7.0,90,0.00,,,0.01,Wunderground v.1.15,2013-03-25 04:05:00,
2013-03-24 23:10:00,31.3,28.7,29.69,NW,325,6.0,6.0,90,0.00,,,0.01,Wunderground v.1.15,2013-03-25 04:10:00,
2013-03-24 23:15:00,31.2,28.6,29.69,NNW,333,7.0,10.0,90,0.00,,,0.01,Wunderground v.1.15,2013-03-25 04:15:00,
2013-03-24 23:20:00,31.2,28.6,29.69,NNE,19,8.0,8.0,90,0.00,,,0.01,Wunderground v.1.15,2013-03-25 04:20:00,
2013-03-24 23:25:00,31.2,28.6,29.69,North,5,8.0,8.0,90,0.00,,,0.01,Wunderground v.1.15,2013-03-25 04:25:00,
2013-03-24 23:35:00,31.2,28.6,29.69,NNW,329,7.0,10.0,90,0.00,,,0.01,Wunderground v.1.15,2013-03-25 04:35:00,
2013-03-24 23:45:00,31.2,28.6,29.70,North,5,7.0,9.0,90,0.00,,,0.01,Wunderground v.1.15,2013-03-25 04:45:00,
2013-03-24 23:55:00,31.1,28.5,29.70,NNW,331,8.0,9.0,90,0.00,,,0.01,Wunderground v.1.15,2013-03-25 04:55:00,